Overview Statistics Trail Chart Weather Telemetry Raw packets
 

This is the latest recevied weather packets stored in our database for station/object N0QV. If no packets are shown the sender has not sent any weather packets the latest 10 day(s).

<< 50 51 52 53 54 55 56 >>
Time Temp. Humidity Pressure Rain* Wind** Luminosity Snow
1788328646 20° C 92% 1013 hPa 3.05 mm - 0 W/m² -
1788328342 20° C 92% 1013.9 hPa 4.83 mm - 0 W/m² -
1788328037 20° C 92% 1014.8 hPa 6.1 mm - 0 W/m² -
1788327733 20° C 91% 1015.3 hPa 18.54 mm - 0 W/m² -
1788327428 20.56° C 92% 1016.5 hPa 62.99 mm - 0 W/m² -
1788327128 21.11° C 93% 1018.3 hPa 44.45 mm - 0 W/m² -
1788326827 21.11° C 93% 1018.3 hPa 3.05 mm - 0 W/m² -
1788326523 21.11° C 93% 1015.8 hPa 4.83 mm - 0 W/m² -
1788326221 21.67° C 93% 1014.3 hPa 3.05 mm - 0 W/m² -
1788325916 21.67° C 92% 1014.1 hPa 1.27 mm - 0 W/m² -
1788325611 21.67° C 92% 1013.9 hPa 3.05 mm - 0 W/m² -
1788325306 21.67° C 92% 1014.3 hPa 7.87 mm - 0 W/m² -
1788325001 21.67° C 91% 1014.1 hPa 57.66 mm - 0 W/m² -
1788324698 22.22° C 92% 1013.6 hPa 61.21 mm - 0 W/m² -
1788324397 22.78° C 91% 1014.5 hPa 10.67 mm - 0 W/m² -
1788324094 22.78° C 91% 1014.2 hPa 1.78 mm - 0 W/m² -
1788323789 22.78° C 90% 1014 hPa 0 mm - 0 W/m² -
1788323484 22.78° C 89% 1013.5 hPa 1.27 mm - 0 W/m² -
1788323183 22.78° C 89% 1013.7 hPa 1.27 mm - 0 W/m² -
1788322879 23.33° C 87% 1013.8 hPa 1.78 mm - 0 W/m² -
1788322578 23.89° C 84% 1013.7 hPa 1.78 mm - 0 W/m² -
1788322273 24.44° C 82% 1013.4 hPa 0 mm - 0 W/m² -
1788321973 24.44° C 80% 1012.8 hPa 0 mm - 0 W/m² -
1788321668 24.44° C 79% 1012.8 hPa 0 mm - 0 W/m² -
1788321366 25° C 77% 1013 hPa 0 mm - 0 W/m² -

* Rain latest hour (hover to see other rain measurements)
** Current wind speed in m/s (hover to see current wind gust speed)